Location: Chervonnoye
(48.6000°N, 34.4000°E)
Time: 06:11:38
(UTC+00:00)

SL-8 Rocket - Pass Details

Date: 23 November 2020
Orbit: 958 x 990 km, 82.9° (Epoch: 18 January)

Event Time Altitude Azimuth Distance (km) Brightness Sun altitude
Rises 15:39:13 0° 352° (N) 3,667 7.0 -16.9°
Reaches altitude 10° 15:41:45 10° 355° (N) 2,720 6.3 -17.3°
Maximum altitude 15:47:58 70° 79° (ENE) 1,037 3.9 -18.3°
Drops below altitude 10° 15:54:12 10° 163° (SSE) 2,724 6.3 -19.3°
Sets 15:56:43 0° 165° (SSE) 3,672 7.0 -19.7°
